OSCAR 7 (AO-7) 1 07530U 74089B 26105.51580918 -.00000034 00000+0 77838-4 0 9998 2 07530 101.9943 118.1019 0011884 250.0531 234.9884 12.53697121352660 PHASE 3B (AO-10) 1 14129U 83058B 26102.81319713 -.00000295 00000+0 00000+0 0 9990 2 14129 25.8997 230.4827 6034279 97.6141 330.5213 2.05874162294146 UOSAT 2 (UO-11) 1 14781U 84021B 26105.32646448 .00000799 00000+0 87246-4 0 9992 2 14781 97.8006 71.6311 0008580 40.9131 319.2729 14.90631257247768 LUSAT (LO-19) 1 20442U 90005G 26105.59907336 .00000074 00000+0 42980-4 0 9999 2 20442 98.8900 125.6670 0012170 34.6069 325.5904 14.34103226893424 EYESAT A (AO-27) 1 22825U 93061C 26105.13790632 .00000048 00000+0 35178-4 0 9992 2 22825 98.6917 172.5627 0007255 287.5093 72.5297 14.30925061697986 ITAMSAT (IO-26) 1 22826U 93061D 26105.13606560 .00000055 00000+0 37710-4 0 9991 2 22826 98.6865 172.4719 0007735 268.3949 91.6348 14.31350324698299 RADIO ROSTO (RS15) 1 23439U 94085A 26105.50149040 -.00000052 00000+0 -27719-3 0 9991 2 23439 64.8193 44.5939 0154078 15.2545 345.2950 11.27583861288834 JAS-2 (FO-29) 1 24278U 96046B 26105.61319097 -.00000019 00000+0 19490-4 0 9995 2 24278 98.5319 323.0277 0348819 258.7948 97.3802 13.53271175464705 TECHSAT 1B (GO-32) 1 25397U 98043D 26105.54785078 .00000029 00000+0 32769-4 0 9999 2 25397 99.0058 96.7332 0002126 60.5815 299.5575 14.24415868442415 ISS (ZARYA) 1 25544U 98067A 26105.55408209 .00005244 00000+0 10354-3 0 9997 2 25544 51.6327 250.0746 0006583 315.7730 44.2732 15.48924547562046 PCSAT (NO-44) 1 26931U 01043C 26105.57729721 .00000042 00000+0 46779-4 0 9995 2 26931 67.0518 46.2057 0006663 264.3457 95.6885 14.31931241281489 SAUDISAT 1C (SO-50) 1 27607U 02058C 26105.03562669 .00000465 00000+0 73069-4 0 9991 2 27607 64.5525 324.3546 0075538 273.9658 85.2815 14.82908260255096 CUTE-1 (CO-55) 1 27844U 03031E 26105.30486740 .00000188 00000+0 10046-3 0 9998 2 27844 98.6765 114.6504 0009804 15.6729 344.4752 14.24296041182722 CUBESAT XI-IV (CO-57) 1 27848U 03031J 26104.98076810 .00000167 00000+0 92384-4 0 9991 2 27848 98.6796 114.0935 0010079 34.0369 326.1454 14.23586623182388 MOZHAETS 4 (RS22) 1 27939U 03042A 26105.60410414 .00000208 00000+0 40417-4 0 9992 2 27939 98.3463 288.1999 0012499 105.6136 344.1161 14.73352496206336 CUBESAT XI-V 1 28895U 05043F 26104.86908954 .00000878 00000+0 14655-3 0 9992 2 28895 98.2906 259.1951 0014942 50.4277 309.8247 14.72464120 92437 CUTE-1.7+APD II (CO-65) 1 32785U 08021C 26105.59121445 .00002367 00000+0 15453-3 0 9999 2 32785 97.8246 85.7519 0007344 234.9499 125.1041 15.08859009975758 SEEDS II (CO-66) 1 32791U 08021J 26105.48303665 .00009874 00000+0 33616-3 0 9991 2 32791 97.7522 100.4970 0004206 136.6893 223.4679 15.30621858977695 YUBILEINY (RS30) 1 32953U 08025A 26105.56696632 .00000017 00000+0 48399-4 0 9998 2 32953 82.5066 34.3839 0020590 87.1112 273.2324 12.43177599811918 KKS-1 (KISEKI) 1 33499U 09002H 26105.64441291 .00000719 00000+0 95337-4 0 9991 2 33499 98.1189 27.1056 0008951 126.6440 233.5597 14.82960528926920 SWISSCUBE 1 35932U 09051B 26105.29036715 .00000562 00000+0 12094-3 0 9995 2 35932 98.4072 12.0787 0007925 54.4364 305.7575 14.62357219879969 BEESAT-1 1 35933U 09051C 26105.47286368 .00000476 00000+0 10571-3 0 9999 2 35933 98.4001 12.0297 0006522 67.0090 293.1798 14.61615668880026 ITUPSAT1 1 35935U 09051E 26105.20348216 .00000428 00000+0 98559-4 0 9993 2 35935 98.4088 11.0140 0008770 75.9678 284.2496 14.60343472879547 XIWANG-1 (HOPE-1) 1 36122U 09072B 26105.62060916 .00000025 00000+0 18273-3 0 9996 2 36122 100.3968 60.4674 0007829 21.1271 339.0164 13.16437147784776 O/OREOS (USA 219) 1 37224U 10062C 26105.43989780 .00001306 00000+0 12989-3 0 9990 2 37224 71.9700 222.4387 0015026 193.4971 166.5800 14.93490365107277 JUGNU 1 37839U 11058B 26105.07725022 .00000398 00000+0 68443-4 0 9992 2 37839 19.9623 331.8381 0018601 99.6952 65.9503 14.13757075750083 SRMSAT 1 37841U 11058D 26105.32212332 .00000357 00000+0 49632-4 0 9992 2 37841 19.9719 79.9733 0011633 231.5218 270.0727 14.11560384748923 STRAND-1 1 39090U 13009E 26105.53487068 .00000173 00000+0 72603-4 0 9991 2 39090 98.3910 287.3147 0009695 62.6352 297.5820 14.37125624688064 ZACUBE-1 (TSHEPISOSAT) 1 39417U 13066B 26105.34077618 .00001958 00000+0 15647-3 0 9998 2 39417 97.8128 67.3440 0044938 101.6961 258.9310 15.00668026671306 GOMX-1 1 39430U 13066Q 26105.46596059 .00000840 00000+0 13402-3 0 9997 2 39430 97.6539 309.8753 0127600 279.1543 79.5247 14.69233417660705 CUBEBUG-2 (LO-74) 1 39440U 13066AA 26105.28673535 .00001487 00000+0 14337-3 0 9999 2 39440 97.8863 54.0410 0056583 235.1258 124.4634 14.93336749667608 FUNCUBE-1 (AO-73) 1 39444U 13066AE 26105.32901243 .00004916 00000+0 31342-3 0 9993 2 39444 97.8232 75.5219 0038556 59.2369 301.2646 15.08588367670182 UWE-3 1 39446U 13066AG 26105.37442508 .00001416 00000+0 12692-3 0 9993 2 39446 97.8660 61.0728 0049616 166.9952 193.2562 14.96534404668189 UNISAT-6 1 40012U 14033C 26105.39522863 .00001520 00000+0 16941-3 0 9991 2 40012 97.7797 259.2564 0043972 275.4654 84.1548 14.87878696636825 DUCHIFAT-1 1 40021U 14033M 26105.37959777 .00035349 00000+0 53266-3 0 9994 2 40021 98.0560 156.2644 0003069 282.3839 77.7069 15.54721406645969 QB50P1 1 40025U 14033R 26105.25455655 .00003963 00000+0 20266-3 0 9992 2 40025 98.0995 112.0320 0010733 84.0164 276.2291 15.17267027643481 LILACSAT-2 1 40908U 15049K 26105.60172140 .00009876 00000+0 18147-3 0 9998 2 40908 97.4744 140.1325 0008866 115.8275 244.3891 15.49402145586051 FOX-1A (AO-85) 1 40967U 15058D 26105.36131648 .00001294 00000+0 12852-3 0 9997 2 40967 64.7725 114.1671 0128392 81.2496 280.3132 14.90585217104203 CAS-2T & KS-1Q 1 41847U 16066G 26105.48696021 .00000306 00000+0 53059-4 0 9997 2 41847 98.3839 181.9284 0341421 319.9675 37.6795 14.44554749495747 RADFXSAT (FOX-1B) 1 43017U 17073E 26105.60788239 .00004169 00000+0 18790-3 0 9997 2 43017 97.4798 334.1314 0153486 183.9254 176.0786 15.11599787455933 DIWATA-2B 1 43678U 18084H 26105.61022351 .00001266 00000+0 10647-3 0 9998 2 43678 98.1050 299.1674 0013847 19.4058 340.7688 15.00148387406835 ES'HAIL 2 1 43700U 18090A 26105.59000498 .00000150 00000+0 00000+0 0 9995 2 43700 0.0118 247.5419 0001155 158.0937 36.3004 1.00272250 27041 FOX-1CLIFF (AO-95) 1 43770U 18099N 26105.39031055 .00005384 00000+0 21613-3 0 9993 2 43770 97.4443 165.9179 0008659 198.8751 161.2168 15.25362872403642 ITASAT 1 43786U 18099AE 26105.35967070 .00003488 00000+0 17332-3 0 9997 2 43786 97.4097 158.1437 0012249 204.5807 155.4845 15.18251682403377 JY1SAT (JO-97) 1 43803U 18099AX 26105.41771106 .00007559 00000+0 24945-3 0 9998 2 43803 97.4190 168.1153 0007338 129.4195 230.7697 15.31681942404010 UWE-4 1 43880U 18111E 26105.22764318 .00015015 00000+0 34876-3 0 9994 2 43880 97.5859 30.9123 0008350 172.1349 188.0030 15.42425492401068 TIANYAN 01 1 44881U 19093C 26105.64366255 .00000767 00000+0 92898-4 0 9997 2 44881 97.7563 179.3969 0012175 296.3898 63.6068 14.86420841342128 RS-44 & BREEZE-KM R/B 1 44909U 19096E 26105.46033590 .00000001 00000+0 -34442-4 0 9997 2 44909 82.5263 21.3850 0216449 291.2002 66.6098 12.79747872294324 SALSAT 1 46495U 20068K 26105.26708578 .00004087 00000+0 14851-3 0 9991 2 46495 97.8862 104.5486 0010710 153.9105 206.2675 15.28870140305744 XW-3 (CAS-9) 1 50466U 21131B 26105.64539358 .00000194 00000+0 73528-4 0 9998 2 50466 98.4949 198.3858 0002909 292.8282 67.2599 14.41296281226108 GREENCUBE (IO-117) 1 53109U 22080E 26104.99591879 -.00000003 00000+0 00000+0 0 9992 2 53109 70.1494 320.2325 0008873 304.1093 55.8724 6.42583330 88009 UMKA 1 (RS40S) 1 57172U 23091G 26105.57248381 .00003238 00000+0 15282-3 0 9995 2 57172 97.5110 164.5265 0012195 345.2020 14.8856 15.20121693154495 CUBESX-HSE 3 (RS42S) 1 57178U 23091N 26105.60112057 .00007010 00000+0 24615-3 0 9997 2 57178 97.5144 170.4598 0009657 318.8056 41.2455 15.29686063154852 MONITOR-3 (RS58S) 1 57180U 23091Q 26105.55970707 .00005271 00000+0 20380-3 0 9990 2 57180 97.5138 168.5913 0010703 326.0302 34.0250 15.26620631154732 MONITOR-4 (RS57S) 1 57182U 23091S 26105.60820954 .00005386 00000+0 20759-3 0 9993 2 57182 97.5132 168.6072 0010646 326.3720 33.6842 15.26715629154743 MONITOR-2 (RS39S) 1 57184U 23091U 26105.58387040 .00002608 00000+0 13023-3 0 9996 2 57184 97.5133 164.2806 0010420 338.2969 21.7822 15.18341801154452 SVYATOBOR 1 (RS60S) 1 57187U 23091X 26105.57106745 .00004636 00000+0 18545-3 0 9996 2 57187 97.5144 169.0776 0008236 318.8221 41.2394 15.25572651154765 VIZARD-METEO (RS38S) 1 57189U 23091Z 26105.56675098 .00008526 00000+0 26075-3 0 9998 2 57189 97.5137 173.8820 0005953 294.9894 65.0730 15.34092903155086 NANOZOND 1 (RS49S) 1 57190U 23091AA 26105.31711707 .01068860 68049-3 12269-2 0 9999 2 57190 97.4917 189.1948 0011277 261.2749 98.7257 16.09051729156088 POLYTECH-UNIVERSE 3 (R*) 1 57191U 23091AB 26105.61924109 .00002564 00000+0 12720-3 0 9995 2 57191 97.5108 163.8213 0015184 353.2421 6.8606 15.18537706154456 UTMN 2 (RS27S) 1 57203U 23091AP 26105.58838011 .00006914 00000+0 23661-3 0 9990 2 57203 97.5137 172.0034 0006728 304.6297 55.4308 15.30552443154964 KUZGTU 1 (RS47S) 1 57217U 23091AV 26105.60529628 .00006222 00000+0 22704-3 0 9998 2 57217 97.5117 169.5024 0009882 322.8996 37.1559 15.28469066154813 SONATE-2 1 59112U 24043Q 26105.38958023 .00020168 00000+0 30914-3 0 9999 2 59112 97.5455 252.1850 0007306 77.3599 282.8471 15.54334647118121 MESAT1 1 60209U 24125G 26105.56389962 .00031383 00000+0 43106-3 0 9997 2 60209 97.2393 321.8855 0012576 91.9430 268.3266 15.57168736 99809 OOV-CUBE (TUBSAT-30) 1 60240U 24128F 26105.43551288 .00001141 00000+0 99193-4 0 9990 2 60240 61.9932 84.3316 0051486 120.0340 240.5874 15.02463577 96682 COLIBRI-S (RS67S) 1 61746U 24199M 26105.61762815 .00012065 00000+0 25571-3 0 9995 2 61746 97.3097 338.9933 0010277 139.5579 220.6436 15.45175459127745 HORS 3 (RS81S) 1 61753U 24199U 26105.64609737 .00018770 00000+0 32503-3 0 9991 2 61753 97.3072 340.4117 0008586 140.2636 219.9247 15.50925621127854 HORS 4 (RS82S) 1 61754U 24199V 26105.57512070 .00025240 00000+0 38547-3 0 9991 2 61754 97.3036 341.1977 0008061 136.0947 224.0949 15.54378312127908 HORIZON (RS59S) 1 61757U 24199Y 26105.42982264 .00178416 00000+0 76712-3 0 9994 2 61757 97.2958 346.2138 0006696 128.7978 231.3891 15.84541275128217 ARCTICSAT 1 (RS74S) 1 61762U 24199AD 26105.59470974 .00133335 00000+0 88436-3 0 9995 2 61762 97.2998 345.5492 0007494 123.9492 236.2487 15.75066028128186 SIT-2086 1 61764U 24199AF 26105.61762068 .00013478 00000+0 24568-3 0 9999 2 61764 97.3064 341.0513 0007923 129.4852 230.7102 15.49547130124735 HYPERVIEW 1G (RS66S) 1 61772U 24199AP 26105.62176818 .00047958 00000+0 51500-3 0 9997 2 61772 97.3008 342.7920 0009279 135.7957 224.4045 15.63594597124869 ALTAIR (RS65S) 1 61779U 24199AW 26105.58821756 .00005846 00000+0 16938-3 0 9993 2 61779 97.3124 335.3775 0013623 163.7571 196.4113 15.35858986127504 ASRTU-1 (AO-123) 1 61781U 24199AY 26105.59188147 .00004520 00000+0 13612-3 0 9991 2 61781 97.3095 334.8390 0014479 166.6372 193.5257 15.34756936124327 TUSUR GO (RS78S) 1 61782U 24199AZ 26105.46823465 .00265220 00000+0 95615-3 0 9996 2 61782 97.2912 345.3308 0007054 139.9658 220.2135 15.87984839125026 SAMSAT-IONOSPHERE (RS7*) 1 61784U 24199BB 26105.57213413 .00024173 00000+0 39340-3 0 9999 2 61784 97.3057 340.2031 0011031 144.1307 216.0689 15.52591217127839 RTU MIREA 1 (RS51S) 1 61785U 24199BC 26105.58324652 .00027844 00000+0 41515-3 0 9994 2 61785 97.3047 340.7801 0011145 141.4881 218.7171 15.54984751124723 TEVEL2-4 1 63213U 25052D 26105.21281148 .00008332 00000+0 26838-3 0 9995 2 63213 97.3979 1.5836 0002452 25.6004 334.5359 15.32451210 60466 TEVEL2-5 1 63214U 25052E 26105.22689471 .00008010 00000+0 25923-3 0 9995 2 63214 97.3977 1.5625 0002443 26.3537 333.7829 15.32310219 60466 TEVEL2-6 1 63215U 25052F 26104.64993692 .00009505 00000+0 30758-3 0 9996 2 63215 97.3983 0.9713 0002594 25.1375 334.9993 15.32260434 60377 TEVEL2-1 1 63217U 25052H 26104.46254423 .00009315 00000+0 30586-3 0 9998 2 63217 97.3953 0.4796 0003177 34.6991 325.4457 15.31794864 60333 TEVEL2-3 1 63218U 25052J 26105.43904977 .00008266 00000+0 27122-3 0 9999 2 63218 97.3958 1.4692 0003118 32.8444 327.2991 15.31855590 60486 TEVEL2-2 1 63219U 25052K 26105.44298954 .00008650 00000+0 28405-3 0 9994 2 63219 97.3957 1.4596 0003093 32.4565 327.6866 15.31817486 60488 TEVEL2-9 1 63237U 25052AD 26105.60457267 .00008872 00000+0 30782-3 0 9993 2 63237 97.4014 1.1226 0006778 23.1336 337.0209 15.30007003 60454 TEVEL2-7 1 63238U 25052AE 26104.98035611 .00009103 00000+0 31825-3 0 9996 2 63238 97.4020 0.4413 0006956 24.8941 335.2633 15.29749027 60357 TEVEL2-8 1 63239U 25052AF 26105.44576761 .00007545 00000+0 26441-3 0 9991 2 63239 97.4016 0.8838 0006949 24.9786 335.1790 15.29734571 60427 HADES-ICM 1 63492U 25052BN 26104.47883696 .00158505 00000+0 12433-2 0 9990 2 63492 97.3893 6.5635 0003945 81.3378 278.8331 15.71060930 60731 INNOSAT 16 (RS92S7) 1 64878U 25155C 26105.60545484 .00003724 00000+0 15306-3 0 9994 2 64878 97.4516 72.9866 0012155 53.3975 306.8379 15.24745031 71131 GEOSCAN 6 (RS92S6) 1 64879U 25155D 26105.57306829 .00006573 00000+0 23635-3 0 9998 2 64879 97.4511 73.9608 0009465 50.5918 309.6158 15.28924908 71196 GEOSCAN 1 (RS92S1) 1 64880U 25155E 26105.59778794 .00007005 00000+0 24795-3 0 9995 2 64880 97.4509 74.0840 0009435 51.0753 309.1327 15.29417694 71200 239ALFEROV (RS61S) 1 64881U 25155F 26105.58331947 .00009154 00000+0 30575-3 0 9990 2 64881 97.4511 74.4391 0009096 51.6839 308.5218 15.31218918 71228 GEOSCAN 2 (RS92S2) 1 64890U 25155Q 26105.60293095 .00006964 00000+0 24439-3 0 9992 2 64890 97.4507 74.2158 0008390 41.0184 319.1686 15.29712107 71216 GEOSCAN 5 (RS92S5) 1 64891U 25155R 26105.58548144 .00008975 00000+0 29685-3 0 9990 2 64891 97.4504 74.5543 0008166 58.4871 301.7167 15.31548633 71238 GEOSCAN 4 (RS92S4) 1 64892U 25155S 26105.57519780 .00009012 00000+0 29695-3 0 9998 2 64892 97.4507 74.5764 0008180 58.8615 301.3427 15.31668407 71230 GEOSCAN 3 (RS92S3) 1 64893U 25155T 26105.58333808 .00010973 00000+0 34350-3 0 9997 2 64893 97.4496 74.8531 0008058 61.3600 298.8451 15.33257080 71252 INNOSAT 3 (RS92S0) 1 64894U 25155U 26105.61056633 .00022584 00000+0 57479-3 0 9998 2 64894 97.4460 75.8340 0007712 66.0756 294.1297 15.39565728 71325 KNACKSAT-2 1 67683U 98067XZ 26105.65405102 .00025735 00000+0 38264-3 0 9994 2 67683 51.6306 247.7444 0011463 325.1348 34.8890 15.54916525 10530